カタログに戻る

SL-6 R/B(2)

運用中HEO
NORAD 17081·ROCKET BODY·🇷🇺 Russia

打ち上げ Nov 15, 1986 から Plesetsk Cosmodrome

Loading…

次のパス (今後24時間)

TLE

最新Source: Space-Track

元期: Sep 13, 2026, 14:04 UTC

1 17081U 86089D   26256.58633836  .00000118  00000-0  00000-0 0  9991
2 17081  63.5163 117.8513 7023888 252.4304  24.8727  1.95705313284531

AllMySatでSL-6 R/B(2)をリアルタイム追跡

Download on the App Store